[[{"header":{"parameterUnit":"m.s-1","parameterCategory":1,"la1":30.2991,"la2":30.254,"lo1":-89.0895,"lo2":-89.0444,"dy":0.0017,"dx":0.0017,"nx":28,"ny":28,"refTime":"2024-06-18T09:00:00:Z","depth":0,"parameterNumber":2,"parameterNumberName":"U-component_of_WINDS"},"data":[0,0,0,0,0,0,0,0,0,0,0,0,0,0,0,0,0,0,0,0,0,0,0,0,0,0,0,0,0,0,0,0,0,0,0,0,0,0,0,0,0,0,0,0,0,0,0,0,0,0,0,0,0,0,0,0,0,0,-7.8641,-7.8641,0,-7.8616,-7.8616,-7.8615,-7.8385,-7.838,-7.8374,-7.8369,-7.8343,-7.8348,-7.8353,0,0,0,0,0,0,0,0,0,0,0,0,0,-7.849,-7.8494,-7.8641,-7.8641,-7.864,-7.8616,-7.8616,-7.8615,-7.8386,-7.8379,-7.8373,-7.8366,-7.8342,-7.8347,-7.8353,0,0,0,0,0,0,0,0,0,0,0,0,0,-7.852,-7.8496,-7.8641,-7.8523,-7.8512,-7.8616,-7.8616,-7.8615,-7.8388,-7.8379,-7.8371,-7.8363,-7.834,-7.8347,-7.8354,-7.8569,0,0,-7.8375,-7.8378,0,0,0,0,0,0,0,0,-7.8518,-7.8526,-7.8541,-7.8531,-7.8519,-7.8495,-7.8553,-7.86,-7.839,-7.8435,-7.8368,-7.8359,-7.8401,-7.8402,-7.8416,-7.8568,-7.8566,-7.8376,-7.838,-7.8383,-7.8385,0,0,0,0,0,0,0,-7.8517,-7.8525,-7.8631,-7.8541,-7.8528,-7.8472,-7.8466,-7.8561,-7.8466,-7.8431,-7.8414,-7.8414,-7.8393,-7.841,-7.8414,-7.8566,-7.8376,-7.8382,-7.8386,-7.8389,-7.8891,-7.89,0,0,0,0,0,0,-7.8531,-7.8525,-7.8632,-7.863,-7.8498,-7.8481,-7.8475,-7.8512,-7.8465,-7.8449,-7.8421,-7.8403,-7.8403,-7.8406,-7.8412,-7.8658,-7.8383,-7.839,-7.8394,-7.8882,-7.8893,-7.8903,0,0,0,0,0,0,-7.8529,-7.8543,-7.8633,-7.8573,-7.858,-7.8493,-7.8536,-7.8516,-7.8532,-7.8458,-7.844,-7.8456,-7.8396,-7.8403,-7.8531,-7.8654,-7.8393,-7.8399,-7.8871,-7.8885,-7.8898,-7.9154,0,0,0,0,0,0,-7.8525,-7.8543,-7.8624,-7.8577,-7.8584,-7.8752,-7.8543,-7.8521,-7.8545,-7.8521,-7.8485,-7.8471,-7.839,-7.8522,-7.8538,-7.8659,-7.8404,-7.8859,-7.8877,-7.8893,-7.9134,-7.9174,-7.9209,0,0,0,0,0,-7.8521,-7.8697,-7.8629,-7.8643,-7.8683,-7.876,-7.8764,-7.8666,-7.8556,-7.8635,-7.8588,-7.8472,-7.864,-7.8537,-7.8553,-7.8678,-7.8851,-7.8872,-7.8892,-7.9117,-7.9166,-7.9208,0,0,0,0,0,0,-7.876,-7.8688,-7.8612,-7.8778,-7.8777,-7.8721,-7.8818,-7.8722,-7.8752,-7.8728,-7.8607,-7.8601,-7.8748,-7.8726,-7.8613,-7.8883,-7.8725,-7.875,-7.8891,-7.8937,-7.8974,-7.8974,-7.841,0,0,0,0,0,-7.8833,-7.8901,-7.8835,-7.8988,-7.8991,-7.8906,-7.8936,-7.8861,-7.8854,-7.8852,-7.8814,-7.8812,-7.8864,-7.89,-7.8944,-7.9132,-7.9119,-7.9226,-7.9264,-7.9295,-7.9316,-7.9412,-7.9458,-7.897,-7.897,-7.897,0,0,-7.8982,-7.8951,-7.9002,-7.9035,-7.9025,-7.9098,-7.8907,-7.8992,-7.9044,-7.8865,-7.8982,-7.8956,-7.8946,-7.9105,-7.9173,-7.9091,-7.9449,-7.9322,-7.9347,-7.9351,-7.9438,-7.9484,-7.9525,-7.8984,-7.8982,-7.8979,0,0,-7.929,-7.9276,-7.94,-7.9394,-7.9382,-7.9324,-7.9355,-7.9314,-7.9289,-7.9406,-7.9273,-7.9335,-7.9427,-7.9424,-7.9435,-7.9747,-7.9641,-7.9766,-7.996,-8.0055,-8.0093,-8.0127,-8.0234,-8.0275,-7.9788,-7.9789,-7.9789,0,-7.9476,-7.958,-7.9476,-7.957,-7.9588,-7.9431,-7.9556,-7.9556,-7.9559,-7.9575,-7.9485,-7.9597,-7.958,-7.9735,-7.9811,-7.9827,-7.9856,-7.9766,-8.0097,-8.0129,-8.0158,-8.0259,-8.0301,-7.9803,-7.9802,-7.98,-7.9799,0,-7.9809,-7.9884,-7.9986,-7.9992,-8.0023,-8.0133,-8.0045,-8.0088,-8.0013,-7.9966,-8.0087,-8.0061,-8.0096,-8.0129,-8.0056,-8.0274,-8.0223,-8.0118,-7.9955,-8.0221,-8.0314,-8.0352,-7.9825,-7.9819,-7.9815,-7.9811,0,0,-8.0261,-8.0211,-8.025,-8.025,-8.0227,-8.0282,-8.0386,-8.042,-8.0458,-8.0468,-8.0549,-8.0633,-8.0535,-8.0548,-8.0474,-8.0559,-8.0803,-8.0441,-8.0439,-8.0506,-8.1038,-8.1114,-8.1161,-8.0735,-8.0742,-8.0748,-8.1038,0,-8.0554,-8.0725,-8.0635,-8.0818,-8.0885,-8.0739,-8.0829,-8.0824,-8.0784,-8.0835,-8.0791,-8.085,-8.0718,-8.0725,-8.0802,-8.0757,-8.0907,-8.0736,-8.0808,-8.0811,-8.0809,-8.121,-8.129,-8.1564,-8.1074,-8.108,-8.1084,0,-8.0916,-8.094,-8.113,-8.1094,-8.1119,-8.1201,-8.1224,-8.1276,-8.1269,-8.1234,-8.1251,-8.1157,-8.1256,-8.1101,-8.1233,-8.1119,-8.1144,-8.1127,-8.1135,-8.1133,-8.096,-8.1215,-8.165,-8.169,-8.1141,-8.1137,-8.1133,0,-8.1222,-8.1303,-8.1425,-8.1431,-8.1394,-8.1454,-8.1442,-8.1426,-8.1453,-8.1475,-8.1491,-8.1526,-8.1544,-8.1573,-8.1491,-8.1386,-8.1635,-8.1473,-8.1606,-8.1609,-8.166,-8.1657,-8.2101,-8.1687,-8.1686,-8.1685,-8.1684,0,-8.1554,-8.1675,-8.1562,-8.1637,-8.1768,-8.1666,-8.1799,-8.177,-8.1759,-8.1825,-8.1704,-8.177,-8.1661,-8.1716,-8.1655,-8.1773,-8.1783,-8.1756,-8.1737,-8.1764,-8.1767,-8.1774,-8.1751,-8.1696,-8.1694,-8.1691,-8.169,0,-8.1914,-8.1844,-8.1968,-8.1923,-8.1915,-8.2013,-8.1974,-8.2042,-8.1996,-8.2082,-8.2097,-8.2024,-8.2082,-8.2006,-8.2058,-8.2016,-8.2176,-8.2132,-8.2178,-8.2163,-8.2299,-8.2286,-8.2759,-8.2814,-8.237,-8.2375,-8.2378,0,-8.2128,-8.2217,-8.2183,-8.2219,-8.2214,-8.2274,-8.2301,-8.2206,-8.2238,-8.2238,-8.2306,-8.2355,-8.2388,-8.2489,-8.244,-8.248,-8.2431,-8.2595,-8.2436,-8.246,-8.2428,-8.2422,-8.2429,-8.2625,-8.2631,-8.2635,-8.2639,0,-8.2514,-8.2475,-8.2518,-8.2551,-8.2586,-8.2607,-8.2618,-8.2655,-8.2555,-8.2599,-8.2657,-8.2684,-8.2737,-8.2786,-8.2813,-8.28,-8.2703,-8.2691,-8.2722,-8.2747,-8.2769,-8.2755,-8.2261,-8.2678,-8.2674,-8.2671,-8.2669,-8.2668,-8.2804,-8.2876,-8.2863,-8.2915,-8.2914,-8.2928,-8.2989,-8.2951,-8.2998,-8.3033,-8.2976,-8.3049,-8.3041,-8.3066,-8.3065,-8.3121,-8.305,-8.3098,-8.3109,-8.3121,-8.3139,-8.2766,-8.3126,-8.3125,-8.3124,-8.3123,-8.3122,0,-8.3179,-8.3164,-8.3214,-8.3234,-8.3275,-8.3183,-8.3192,-8.3232,-8.3298,-8.3299,-8.3335,-8.3403,-8.3451,-8.3408,-8.3447,-8.3501,-8.3457,-8.3514,-8.3506,-8.3504,-8.3202,-8.3168,-8.3548,-8.3548,-8.3548,-8.3548,-8.3548,-8.3548,-8.3378,-8.3494,-8.3455,-8.357,-8.3554,-8.3625,-8.3638,-8.365,-8.365,-8.3731,-8.377,-8.3742,-8.3726,-8.3763,-8.3803,-8.3789,-8.3807,-8.3879,-8.385,-8.3567,-8.3525,-8.3485,-8.3452,-8.3885,-8.3886,-8.4145,-8.4148,-8.4149]},{"header":{"parameterUnit":"m.s-1","parameterCategory":1,"la1":30.2991,"la2":30.254,"lo1":-89.0895,"lo2":-89.0444,"dy":0.0017,"dx":0.0017,"nx":28,"ny":28,"refTime":"2024-06-18T09:00:00:Z","depth":0,"parameterNumber":3,"parameterNumberName":"V-component_of_WINDS"},"data":[0,0,0,0,0,0,0,0,0,0,0,0,0,0,0,0,0,0,0,0,0,0,0,0,0,0,0,0,0,0,0,0,0,0,0,0,0,0,0,0,0,0,0,0,0,0,0,0,0,0,0,0,0,0,0,0,0,0,1.7182,1.7182,0,1.718,1.718,1.718,1.7095,1.7093,1.7091,1.7089,1.7086,1.7088,1.709,0,0,0,0,0,0,0,0,0,0,0,0,0,1.7115,1.7117,1.7182,1.7182,1.7182,1.718,1.718,1.718,1.7095,1.7093,1.709,1.7088,1.7086,1.7088,1.709,0,0,0,0,0,0,0,0,0,0,0,0,0,1.7132,1.7118,1.7182,1.714,1.7136,1.718,1.718,1.718,1.7096,1.7093,1.7089,1.7086,1.7085,1.7088,1.7091,1.7175,0,0,1.71,1.7101,0,0,0,0,0,0,0,0,1.7131,1.7134,1.7146,1.7143,1.7138,1.7134,1.7155,1.7178,1.7097,1.7111,1.7088,1.7085,1.7105,1.7106,1.7113,1.7175,1.7175,1.71,1.7102,1.7103,1.7104,0,0,0,0,0,0,0,1.713,1.7134,1.7181,1.7146,1.7142,1.7121,1.712,1.7159,1.7126,1.711,1.7103,1.7104,1.7102,1.711,1.7112,1.7175,1.71,1.7103,1.7104,1.7106,1.7308,1.7311,0,0,0,0,0,0,1.7135,1.7134,1.7181,1.7181,1.7127,1.7125,1.7124,1.7139,1.7126,1.7121,1.7107,1.71,1.7107,1.7109,1.7112,1.721,1.7103,1.7106,1.7108,1.7304,1.7309,1.7313,0,0,0,0,0,0,1.7133,1.714,1.7181,1.7156,1.7159,1.713,1.7148,1.7141,1.7148,1.7124,1.7118,1.7121,1.7104,1.7108,1.716,1.7209,1.7107,1.711,1.73,1.7306,1.7311,1.7408,0,0,0,0,0,0,1.7132,1.714,1.7171,1.7157,1.7161,1.7229,1.7151,1.7143,1.7154,1.7145,1.7135,1.7131,1.7102,1.7156,1.7163,1.7211,1.7112,1.7296,1.7303,1.7309,1.7401,1.7416,1.743,0,0,0,0,0,1.713,1.7198,1.7173,1.7179,1.7199,1.7232,1.7235,1.72,1.7158,1.7189,1.7174,1.7131,1.7203,1.7162,1.717,1.7219,1.7292,1.7301,1.7309,1.7394,1.7413,1.743,0,0,0,0,0,0,1.7217,1.7195,1.7167,1.7232,1.7235,1.7218,1.7256,1.7221,1.7236,1.7227,1.7183,1.7182,1.7242,1.7236,1.7191,1.7301,1.724,1.725,1.7303,1.7321,1.7335,1.7335,1.7115,0,0,0,0,0,1.7244,1.7273,1.7252,1.7312,1.7315,1.7286,1.7299,1.7272,1.7273,1.7274,1.7262,1.7265,1.7288,1.7304,1.7324,1.74,1.7397,1.7438,1.7453,1.7465,1.7474,1.7515,1.7533,1.7339,1.7339,1.7339,0,0,1.73,1.7292,1.7312,1.7329,1.7328,1.7359,1.7287,1.7322,1.7345,1.7279,1.7328,1.7321,1.7321,1.7386,1.7414,1.7383,1.7527,1.7475,1.7485,1.7487,1.7525,1.7543,1.756,1.7345,1.7344,1.7343,0,0,1.7417,1.7414,1.7464,1.7465,1.7465,1.7445,1.7458,1.7447,1.7439,1.7488,1.7439,1.7467,1.7507,1.751,1.7517,1.7639,1.7601,1.7647,1.7723,1.7764,1.7779,1.7793,1.7837,1.7853,1.7656,1.7657,1.7657,0,1.7487,1.7531,1.7494,1.7534,1.7543,1.7486,1.7537,1.754,1.7546,1.7555,1.752,1.7571,1.7567,1.7633,1.7663,1.767,1.7684,1.7647,1.778,1.7793,1.7805,1.7847,1.7864,1.7662,1.7662,1.7661,1.766,0,1.7617,1.7649,1.769,1.7698,1.7713,1.7758,1.7729,1.7748,1.7721,1.7706,1.7758,1.7752,1.777,1.7784,1.7758,1.7847,1.7828,1.7788,1.7725,1.783,1.7868,1.7884,1.767,1.7668,1.7667,1.7665,0,0,1.7787,1.7777,1.7792,1.7796,1.7793,1.7817,1.7861,1.788,1.7898,1.7905,1.7941,1.7978,1.7942,1.795,1.7923,1.7959,1.8058,1.7914,1.7914,1.7942,1.8157,1.8188,1.8207,1.8033,1.8036,1.8038,1.8157,0,1.7901,1.7974,1.7944,1.802,1.805,1.7998,1.8036,1.8039,1.8027,1.8051,1.8038,1.8065,1.8014,1.8019,1.8052,1.8039,1.8101,1.803,1.8066,1.8068,1.8068,1.8227,1.8258,1.8371,1.8172,1.8175,1.8177,0,1.8043,1.8058,1.8138,1.8131,1.8143,1.8178,1.8193,1.8217,1.822,1.8209,1.822,1.8186,1.823,1.8169,1.8229,1.8181,1.8195,1.8191,1.8195,1.8196,1.8128,1.8233,1.8406,1.8423,1.82,1.8198,1.8196,0,1.816,1.8199,1.8253,1.8258,1.8252,1.8278,1.8276,1.8276,1.829,1.8304,1.8313,1.8333,1.8343,1.8359,1.8333,1.8291,1.8397,1.8333,1.8389,1.839,1.8413,1.8412,1.8591,1.8423,1.8422,1.8422,1.8422,0,1.8291,1.8342,1.8305,1.8338,1.8395,1.836,1.8417,1.841,1.8411,1.8442,1.8398,1.8428,1.8391,1.8418,1.8398,1.8451,1.8456,1.8449,1.8443,1.8453,1.8454,1.846,1.8452,1.8426,1.8426,1.8425,1.8424,0,1.843,1.8407,1.8462,1.8453,1.8452,1.8494,1.8486,1.8517,1.8503,1.8543,1.855,1.8528,1.8558,1.8534,1.8562,1.8549,1.862,1.8602,1.8619,1.8614,1.8672,1.8667,1.8861,1.8885,1.8701,1.8703,1.8705,0,1.8514,1.8552,1.8548,1.8566,1.8568,1.8597,1.8612,1.858,1.8597,1.8605,1.8635,1.8661,1.868,1.8731,1.8718,1.874,1.8723,1.879,1.8726,1.8736,1.8725,1.8723,1.8727,1.8803,1.8805,1.8807,1.8808,0,1.8667,1.8654,1.8677,1.8697,1.8716,1.873,1.8741,1.8758,1.8726,1.8748,1.8778,1.8793,1.8824,1.8851,1.887,1.8869,1.8834,1.8829,1.8843,1.8853,1.8861,1.8858,1.8654,1.8824,1.8822,1.8821,1.882,1.882,1.8781,1.8813,1.8816,1.8843,1.8848,1.886,1.8889,1.8879,1.8904,1.8926,1.8907,1.8944,1.8948,1.8969,1.8973,1.9002,1.8974,1.8995,1.9,1.9006,1.9014,1.8857,1.9005,1.9005,1.9004,1.9004,1.9004,0,1.8931,1.8931,1.8957,1.8974,1.8996,1.8962,1.8973,1.8994,1.9027,1.9034,1.9055,1.9091,1.9118,1.9108,1.9132,1.9157,1.9142,1.9165,1.9162,1.9163,1.9037,1.9023,1.9177,1.9177,1.9177,1.9177,1.9176,1.9176,1.9012,1.9066,1.9054,1.9111,1.911,1.9146,1.9155,1.9166,1.9172,1.9215,1.9237,1.923,1.9231,1.9255,1.9279,1.9275,1.9286,1.9315,1.9306,1.9188,1.9171,1.9155,1.9141,1.9318,1.9318,1.9429,1.943,1.9431]}]]